Time,TemperatureF,DewpointF,PressureIn,WindDirection,WindDirectionDegrees,WindSpeedMPH,WindSpeedGustMPH,Humidity,HourlyPrecipIn,Conditions,Clouds,dailyrainin,SoftwareType,DateUTC
2013-03-26 00:00:00,56.3,34.7,30.27,NE,53,4.2,7.2,44,0.00,,---,0.00,VWS V14.01,2013-03-26 05:00:00,
2013-03-26 00:05:00,56.2,35.2,30.27,NE,53,4.2,5.2,45,0.00,,---,0.00,VWS V14.01,2013-03-26 05:05:00,
2013-03-26 00:10:00,56.3,32.9,30.27,NE,38,7.2,8.2,41,0.00,,---,0.00,VWS V14.01,2013-03-26 05:10:00,
2013-03-26 00:15:00,56.5,31.9,30.27,NE,38,5.2,8.2,39,0.00,,---,0.00,VWS V14.01,2013-03-26 05:15:00,
2013-03-26 00:20:00,56.6,32.0,30.27,NE,46,5.2,12.2,39,0.00,,---,0.00,VWS V14.01,2013-03-26 05:20:00,
2013-03-26 00:25:00,56.5,31.9,30.27,NNE,32,9.2,11.2,39,0.00,,---,0.00,VWS V14.01,2013-03-26 05:25:00,
2013-03-26 00:30:00,56.7,32.7,30.28,NE,46,6.2,11.2,40,0.00,,---,0.00,VWS V14.01,2013-03-26 05:30:00,
2013-03-26 00:35:00,56.7,32.7,30.28,NE,38,8.2,8.2,40,0.00,,---,0.00,VWS V14.01,2013-03-26 05:35:00,
2013-03-26 00:40:00,56.5,33.1,30.28,NE,35,6.2,8.2,41,0.00,,---,0.00,VWS V14.01,2013-03-26 05:40:00,
2013-03-26 00:45:00,56.5,33.1,30.28,NE,34,3.2,8.2,41,0.00,,---,0.00,VWS V14.01,2013-03-26 05:45:00,
2013-03-26 00:50:00,56.3,32.9,30.28,NNE,32,8.2,10.2,41,0.00,,---,0.00,VWS V14.01,2013-03-26 05:50:00,
2013-03-26 00:55:00,56.3,33.5,30.28,NE,49,4.2,10.2,42,0.00,,---,0.00,VWS V14.01,2013-03-26 05:55:00,
2013-03-26 01:00:00,56.3,34.7,30.29,NE,51,7.2,10.2,44,0.00,,---,0.00,VWS V14.01,2013-03-26 06:00:00,
2013-03-26 01:05:00,56.2,35.2,30.29,NNE,30,8.2,10.2,45,0.00,,---,0.00,VWS V14.01,2013-03-26 06:05:00,
2013-03-26 01:10:00,56.0,35.5,30.29,NNE,25,3.2,7.2,46,0.00,,---,0.00,VWS V14.01,2013-03-26 06:10:00,
2013-03-26 01:15:00,56.0,35.0,30.29,NE,34,4.2,10.2,45,0.00,,---,0.00,VWS V14.01,2013-03-26 06:15:00,
2013-03-26 01:20:00,56.0,34.4,30.29,NE,35,5.2,10.2,44,0.00,,---,0.00,VWS V14.01,2013-03-26 06:20:00,
2013-03-26 01:25:00,56.0,34.4,30.29,NE,34,8.2,9.2,44,0.00,,---,0.00,VWS V14.01,2013-03-26 06:25:00,
2013-03-26 01:30:00,56.2,34.0,30.28,NNE,24,10.2,11.2,43,0.00,,---,0.00,VWS V14.01,2013-03-26 06:30:00,
2013-03-26 01:35:00,56.3,33.5,30.28,NE,38,6.2,8.2,42,0.00,,---,0.00,VWS V14.01,2013-03-26 06:35:00,
2013-03-26 01:40:00,56.3,34.7,30.28,NE,46,6.2,11.2,44,0.00,,---,0.00,VWS V14.01,2013-03-26 06:40:00,
2013-03-26 01:45:00,56.5,35.4,30.28,NE,46,10.2,10.2,45,0.00,,---,0.00,VWS V14.01,2013-03-26 06:45:00,
2013-03-26 01:50:00,56.5,36.0,30.28,NE,35,10.2,14.2,46,0.00,,---,0.00,VWS V14.01,2013-03-26 06:50:00,
2013-03-26 01:55:00,56.6,37.2,30.28,NE,49,8.2,13.2,48,0.00,,---,0.00,VWS V14.01,2013-03-26 06:55:00,
2013-03-26 02:00:00,56.6,37.7,30.28,NE,42,6.2,11.2,49,0.00,,---,0.00,VWS V14.01,2013-03-26 07:00:00,
2013-03-26 02:05:00,56.6,37.7,30.28,NE,40,6.2,11.2,49,0.00,,---,0.00,VWS V14.01,2013-03-26 07:05:00,
2013-03-26 02:10:00,56.7,37.8,30.28,NE,41,6.2,13.2,49,0.00,,---,0.00,VWS V14.01,2013-03-26 07:10:00,
2013-03-26 02:15:00,56.6,38.2,30.29,NE,36,4.2,10.2,50,0.00,,---,0.00,VWS V14.01,2013-03-26 07:15:00,
2013-03-26 02:20:00,56.6,37.7,30.29,NE,39,5.2,14.2,49,0.00,,---,0.00,VWS V14.01,2013-03-26 07:20:00,
2013-03-26 02:25:00,56.6,37.2,30.29,NNE,32,6.2,12.2,48,0.00,,---,0.00,VWS V14.01,2013-03-26 07:25:00,
2013-03-26 02:30:00,56.7,35.6,30.29,NE,51,4.2,14.2,45,0.00,,---,0.00,VWS V14.01,2013-03-26 07:30:00,
2013-03-26 02:35:00,56.9,35.2,30.29,ENE,62,9.2,15.2,44,0.00,,---,0.00,VWS V14.01,2013-03-26 07:35:00,
2013-03-26 02:40:00,56.7,35.6,30.29,NNE,20,13.2,13.2,45,0.00,,---,0.00,VWS V14.01,2013-03-26 07:40:00,
2013-03-26 02:45:00,56.9,35.8,30.28,NNE,30,8.2,12.2,45,0.00,,---,0.00,VWS V14.01,2013-03-26 07:45:00,
2013-03-26 02:50:00,56.7,35.6,30.28,NE,50,6.2,12.2,45,0.00,,---,0.00,VWS V14.01,2013-03-26 07:50:00,
2013-03-26 02:55:00,56.7,34.5,30.28,NE,38,10.2,15.2,43,0.00,,---,0.00,VWS V14.01,2013-03-26 07:55:00,
2013-03-26 03:00:00,56.6,35.0,30.27,NE,50,7.2,12.2,44,0.00,,---,0.00,VWS V14.01,2013-03-26 08:00:00,
2013-03-26 03:05:00,56.6,33.2,30.27,NNE,29,8.2,17.2,41,0.00,,---,0.00,VWS V14.01,2013-03-26 08:05:00,
2013-03-26 03:10:00,56.6,34.4,30.27,NE,49,7.2,16.2,43,0.00,,---,0.00,VWS V14.01,2013-03-26 08:10:00,
2013-03-26 03:15:00,56.6,33.8,30.28,NE,40,15.2,16.2,42,0.00,,---,0.00,VWS V14.01,2013-03-26 08:15:00,
2013-03-26 03:20:00,56.3,34.7,30.28,NNE,28,12.2,18.2,44,0.00,,---,0.00,VWS V14.01,2013-03-26 08:20:00,
2013-03-26 03:25:00,56.2,34.0,30.28,ENE,60,12.2,19.2,43,0.00,,---,0.00,VWS V14.01,2013-03-26 08:25:00,
2013-03-26 03:30:00,56.2,34.0,30.28,ENE,61,11.2,15.2,43,0.00,,---,0.00,VWS V14.01,2013-03-26 08:30:00,
2013-03-26 03:35:00,56.0,34.4,30.27,NE,43,10.2,18.2,44,0.00,,---,0.00,VWS V14.01,2013-03-26 08:35:00,
2013-03-26 03:40:00,56.0,35.0,30.27,NE,47,13.2,16.2,45,0.00,,---,0.00,VWS V14.01,2013-03-26 08:40:00,
2013-03-26 03:45:00,55.9,36.0,30.27,ENE,60,9.2,15.2,47,0.00,,---,0.00,VWS V14.01,2013-03-26 08:45:00,
2013-03-26 03:50:00,55.9,37.0,30.27,ENE,61,13.2,18.2,49,0.00,,---,0.00,VWS V14.01,2013-03-26 08:50:00,
2013-03-26 03:55:00,55.7,37.9,30.27,NNE,32,8.2,20.2,51,0.00,,---,0.00,VWS V14.01,2013-03-26 08:55:00,
2013-03-26 04:00:00,55.7,38.4,30.27,ENE,59,6.2,18.2,52,0.00,,---,0.00,VWS V14.01,2013-03-26 09:00:00,
2013-03-26 04:05:00,55.6,38.8,30.27,NE,34,7.2,16.2,53,0.00,,---,0.00,VWS V14.01,2013-03-26 09:05:00,
2013-03-26 04:10:00,55.6,39.7,30.27,North,5,6.2,13.2,55,0.00,,---,0.00,VWS V14.01,2013-03-26 09:10:00,
2013-03-26 04:15:00,55.4,38.6,30.27,NE,44,16.2,20.2,53,0.00,,---,0.00,VWS V14.01,2013-03-26 09:15:00,
2013-03-26 04:20:00,55.6,39.2,30.28,NE,42,14.2,16.2,54,0.00,,---,0.00,VWS V14.01,2013-03-26 09:20:00,
2013-03-26 04:25:00,55.4,39.0,30.28,NNE,31,8.2,15.2,54,0.00,,---,0.00,VWS V14.01,2013-03-26 09:25:00,
2013-03-26 04:30:00,55.4,38.6,30.28,NE,54,14.2,14.2,53,0.00,,---,0.00,VWS V14.01,2013-03-26 09:30:00,
2013-03-26 04:35:00,55.4,39.0,30.28,NE,55,15.2,15.2,54,0.00,,---,0.00,VWS V14.01,2013-03-26 09:35:00,
2013-03-26 04:40:00,55.4,39.0,30.28,North,9,7.2,15.2,54,0.00,,---,0.00,VWS V14.01,2013-03-26 09:40:00,
2013-03-26 04:45:00,55.4,39.5,30.28,NE,43,9.2,14.2,55,0.00,,---,0.00,VWS V14.01,2013-03-26 09:45:00,
2013-03-26 04:50:00,55.4,39.0,30.29,ENE,64,6.2,13.2,54,0.00,,---,0.00,VWS V14.01,2013-03-26 09:50:00,
2013-03-26 04:55:00,55.3,39.4,30.29,NE,41,11.2,17.2,55,0.00,,---,0.00,VWS V14.01,2013-03-26 09:55:00,
2013-03-26 05:00:00,55.3,39.4,30.29,NE,49,11.2,14.2,55,0.00,,---,0.00,VWS V14.01,2013-03-26 10:00:00,
2013-03-26 05:05:00,55.1,38.3,30.29,NE,38,7.2,12.2,53,0.00,,---,0.00,VWS V14.01,2013-03-26 10:05:00,
2013-03-26 05:10:00,55.1,38.3,30.29,NNE,19,6.2,14.2,53,0.00,,---,0.00,VWS V14.01,2013-03-26 10:10:00,
2013-03-26 05:15:00,55.1,37.8,30.29,NNE,29,15.2,16.2,52,0.00,,---,0.00,VWS V14.01,2013-03-26 10:15:00,
2013-03-26 05:20:00,55.3,38.5,30.29,NE,46,8.2,17.2,53,0.00,,---,0.00,VWS V14.01,2013-03-26 10:20:00,
2013-03-26 05:25:00,55.0,39.2,30.29,NE,35,8.2,16.2,55,0.00,,---,0.00,VWS V14.01,2013-03-26 10:25:00,
2013-03-26 05:30:00,54.8,39.4,30.29,ENE,60,7.2,12.2,56,0.00,,---,0.00,VWS V14.01,2013-03-26 10:30:00,
2013-03-26 05:35:00,54.8,39.4,30.29,NE,54,9.2,14.2,56,0.00,,---,0.00,VWS V14.01,2013-03-26 10:35:00,
2013-03-26 05:40:00,54.8,39.9,30.29,ENE,62,13.2,14.2,57,0.00,,---,0.00,VWS V14.01,2013-03-26 10:40:00,
2013-03-26 05:45:00,55.0,39.6,30.29,ENE,61,11.2,19.2,56,0.00,,---,0.00,VWS V14.01,2013-03-26 10:45:00,
2013-03-26 05:50:00,54.8,39.4,30.30,NE,35,12.2,15.2,56,0.00,,---,0.00,VWS V14.01,2013-03-26 10:50:00,
2013-03-26 05:55:00,54.8,39.0,30.30,NE,42,7.2,16.2,55,0.00,,---,0.00,VWS V14.01,2013-03-26 10:55:00,
2013-03-26 06:00:00,54.8,39.4,30.30,NNE,30,6.2,17.2,56,0.00,,---,0.00,VWS V14.01,2013-03-26 11:00:00,
2013-03-26 06:05:00,54.8,39.9,30.30,NE,51,6.2,16.2,57,0.00,,---,0.00,VWS V14.01,2013-03-26 11:05:00,
2013-03-26 06:10:00,54.8,40.3,30.30,NE,45,9.2,17.2,58,0.00,,---,0.00,VWS V14.01,2013-03-26 11:10:00,
2013-03-26 06:15:00,54.7,39.3,30.30,NE,52,8.2,16.2,56,0.00,,---,0.00,VWS V14.01,2013-03-26 11:15:00,
2013-03-26 06:20:00,54.8,39.9,30.30,NNE,29,5.2,17.2,57,0.00,,---,0.00,VWS V14.01,2013-03-26 11:20:00,
2013-03-26 06:25:00,54.7,39.8,30.30,NE,36,5.2,14.2,57,0.00,,---,0.00,VWS V14.01,2013-03-26 11:25:00,
2013-03-26 06:30:00,54.5,40.5,30.30,NNE,17,8.2,16.2,59,0.00,,---,0.00,VWS V14.01,2013-03-26 11:30:00,
2013-03-26 06:35:00,54.4,40.8,30.32,ENE,62,8.2,15.2,60,0.00,,---,0.00,VWS V14.01,2013-03-26 11:35:00,
2013-03-26 06:40:00,54.4,40.8,30.32,NE,34,7.2,17.2,60,0.00,,---,0.00,VWS V14.01,2013-03-26 11:40:00,
2013-03-26 06:45:00,54.2,40.6,30.32,NNE,13,8.2,15.2,60,0.00,,---,0.00,VWS V14.01,2013-03-26 11:45:00,
2013-03-26 06:50:00,54.2,41.1,30.32,NE,36,8.2,15.2,61,0.00,,---,0.00,VWS V14.01,2013-03-26 11:50:00,
2013-03-26 06:55:00,54.2,40.6,30.32,NNE,26,7.2,13.2,60,0.00,,---,0.00,VWS V14.01,2013-03-26 11:55:00,
2013-03-26 07:00:00,54.1,40.5,30.32,NE,55,8.2,13.2,60,0.00,,---,0.00,VWS V14.01,2013-03-26 12:00:00,
2013-03-26 07:05:00,54.1,40.5,30.33,NE,36,6.2,12.2,60,0.00,,---,0.00,VWS V14.01,2013-03-26 12:05:00,
2013-03-26 07:10:00,54.1,40.5,30.33,ENE,61,12.2,12.2,60,0.00,,---,0.00,VWS V14.01,2013-03-26 12:10:00,
2013-03-26 07:15:00,54.1,40.5,30.33,ENE,76,7.2,14.2,60,0.00,,---,0.00,VWS V14.01,2013-03-26 12:15:00,
2013-03-26 07:20:00,54.1,40.5,30.34,NNE,31,6.2,14.2,60,0.00,,---,0.00,VWS V14.01,2013-03-26 12:20:00,
2013-03-26 07:25:00,54.2,40.6,30.34,NE,54,7.2,13.2,60,0.00,,---,0.00,VWS V14.01,2013-03-26 12:25:00,
2013-03-26 07:30:00,54.2,40.2,30.34,ENE,65,7.2,13.2,59,0.00,,---,0.00,VWS V14.01,2013-03-26 12:30:00,
2013-03-26 07:35:00,54.4,40.4,30.35,NE,48,8.2,13.2,59,0.00,,---,0.00,VWS V14.01,2013-03-26 12:35:00,
2013-03-26 07:40:00,54.4,40.8,30.35,NE,44,5.2,13.2,60,0.00,,---,0.00,VWS V14.01,2013-03-26 12:40:00,
2013-03-26 07:45:00,54.2,41.1,30.35,NE,51,6.2,7.2,61,0.00,,---,0.00,VWS V14.01,2013-03-26 12:45:00,
2013-03-26 07:50:00,54.4,41.2,30.35,NE,51,5.2,11.2,61,0.00,,---,0.00,VWS V14.01,2013-03-26 12:50:00,
2013-03-26 07:55:00,54.4,40.8,30.35,ENE,76,7.2,12.2,60,0.00,,---,0.00,VWS V14.01,2013-03-26 12:55:00,
2013-03-26 08:00:00,54.7,40.2,30.35,ENE,66,8.2,12.2,58,0.00,,---,0.00,VWS V14.01,2013-03-26 13:00:00,
2013-03-26 08:05:00,55.3,39.9,30.35,NE,39,5.2,14.2,56,0.00,,---,0.00,VWS V14.01,2013-03-26 13:05:00,
2013-03-26 08:10:00,55.7,38.8,30.35,ENE,71,9.2,13.2,53,0.00,,---,0.00,VWS V14.01,2013-03-26 13:10:00,
2013-03-26 08:15:00,56.0,39.6,30.35,NE,54,4.2,13.2,54,0.00,,---,0.00,VWS V14.01,2013-03-26 13:15:00,
2013-03-26 08:20:00,56.3,38.9,30.36,NE,42,6.2,13.2,52,0.00,,---,0.00,VWS V14.01,2013-03-26 13:20:00,
2013-03-26 08:25:00,56.6,38.2,30.36,ENE,76,7.2,13.2,50,0.00,,---,0.00,VWS V14.01,2013-03-26 13:25:00,
2013-03-26 08:30:00,56.9,38.0,30.36,NE,53,5.2,12.2,49,0.00,,---,0.00,VWS V14.01,2013-03-26 13:30:00,
2013-03-26 08:35:00,57.0,39.6,30.36,NNE,24,5.2,11.2,52,0.00,,---,0.00,VWS V14.01,2013-03-26 13:35:00,
2013-03-26 08:40:00,57.0,40.1,30.36,NNE,17,6.2,12.2,53,0.00,,---,0.00,VWS V14.01,2013-03-26 13:40:00,
2013-03-26 08:45:00,57.0,41.0,30.36,NNE,24,7.2,12.2,55,0.00,,---,0.00,VWS V14.01,2013-03-26 13:45:00,
2013-03-26 08:50:00,57.0,41.0,30.37,North,11,5.2,13.2,55,0.00,,---,0.00,VWS V14.01,2013-03-26 13:50:00,
2013-03-26 08:55:00,57.5,40.0,30.37,ENE,58,7.2,15.2,52,0.00,,---,0.00,VWS V14.01,2013-03-26 13:55:00,
2013-03-26 09:00:00,57.8,39.8,30.37,ENE,61,6.2,13.2,51,0.00,,---,0.00,VWS V14.01,2013-03-26 14:00:00,
2013-03-26 09:05:00,58.1,39.6,30.38,East,87,7.2,15.2,50,0.00,,---,0.00,VWS V14.01,2013-03-26 14:05:00,
2013-03-26 09:10:00,58.3,39.2,30.38,ENE,76,7.2,17.2,49,0.00,,---,0.00,VWS V14.01,2013-03-26 14:10:00,
2013-03-26 09:15:00,58.4,39.3,30.38,NE,50,7.2,12.2,49,0.00,,---,0.00,VWS V14.01,2013-03-26 14:15:00,
2013-03-26 09:20:00,58.6,39.5,30.38,ENE,74,16.2,16.2,49,0.00,,---,0.00,VWS V14.01,2013-03-26 14:20:00,
2013-03-26 09:25:00,58.6,37.3,30.38,NE,48,5.2,15.2,45,0.00,,---,0.00,VWS V14.01,2013-03-26 14:25:00,
2013-03-26 09:30:00,58.6,38.5,30.38,ENE,59,8.2,16.2,47,0.00,,---,0.00,VWS V14.01,2013-03-26 14:30:00,
2013-03-26 09:35:00,58.7,39.1,30.38,ENE,63,8.2,17.2,48,0.00,,---,0.00,VWS V14.01,2013-03-26 14:35:00,
2013-03-26 09:40:00,59.2,39.0,30.38,ENE,76,15.2,17.2,47,0.00,,---,0.00,VWS V14.01,2013-03-26 14:40:00,
2013-03-26 09:45:00,59.0,39.4,30.38,NE,51,14.2,19.2,48,0.00,,---,0.00,VWS V14.01,2013-03-26 14:45:00,
2013-03-26 09:50:00,59.5,39.3,30.39,East,81,7.2,14.2,47,0.00,,---,0.00,VWS V14.01,2013-03-26 14:50:00,
2013-03-26 09:55:00,59.6,38.2,30.39,ENE,74,11.2,15.2,45,0.00,,---,0.00,VWS V14.01,2013-03-26 14:55:00,
2013-03-26 10:00:00,59.8,37.9,30.39,East,88,7.2,16.2,44,0.00,,---,0.00,VWS V14.01,2013-03-26 15:00:00,
2013-03-26 10:05:00,59.9,35.5,30.39,ENE,72,13.2,15.2,40,0.00,,---,0.00,VWS V14.01,2013-03-26 15:05:00,
2013-03-26 10:10:00,60.1,38.7,30.39,ENE,57,15.2,17.2,45,0.00,,---,0.00,VWS V14.01,2013-03-26 15:10:00,
2013-03-26 10:15:00,60.1,39.3,30.39,ENE,63,12.2,14.2,46,0.00,,---,0.00,VWS V14.01,2013-03-26 15:15:00,
2013-03-26 10:20:00,60.4,39.0,30.38,NE,35,5.2,20.2,45,0.00,,---,0.00,VWS V14.01,2013-03-26 15:20:00,
2013-03-26 10:25:00,60.1,38.1,30.38,NNE,32,12.2,19.2,44,0.00,,---,0.00,VWS V14.01,2013-03-26 15:25:00,
2013-03-26 10:30:00,60.2,38.2,30.38,ENE,57,7.2,17.2,44,0.00,,---,0.00,VWS V14.01,2013-03-26 15:30:00,
2013-03-26 10:35:00,60.7,38.1,30.38,NE,49,12.2,18.2,43,0.00,,---,0.00,VWS V14.01,2013-03-26 15:35:00,
2013-03-26 10:40:00,60.7,35.0,30.38,ENE,70,14.2,16.2,38,0.00,,---,0.00,VWS V14.01,2013-03-26 15:40:00,
2013-03-26 10:45:00,61.0,36.5,30.38,NNE,20,11.2,17.2,40,0.00,,---,0.00,VWS V14.01,2013-03-26 15:45:00,
2013-03-26 10:50:00,60.9,37.1,30.38,ENE,57,16.2,19.2,41,0.00,,---,0.00,VWS V14.01,2013-03-26 15:50:00,
2013-03-26 10:55:00,61.0,37.2,30.38,NE,55,11.2,16.2,41,0.00,,---,0.00,VWS V14.01,2013-03-26 15:55:00,
2013-03-26 11:00:00,60.7,35.0,30.38,ENE,63,12.2,18.2,38,0.00,,---,0.00,VWS V14.01,2013-03-26 16:00:00,
2013-03-26 11:05:00,60.7,35.0,30.38,NE,50,13.2,18.2,38,0.00,,---,0.00,VWS V14.01,2013-03-26 16:05:00,
2013-03-26 11:09:00,60.9,35.1,30.38,NE,39,14.2,21.2,38,0.00,,---,0.00,VWS V14.01,2013-03-26 16:09:00,
2013-03-26 11:10:00,60.9,32.4,30.38,ENE,77,9.2,21.2,34,0.00,,---,0.00,VWS V14.01,2013-03-26 16:10:00,
2013-03-26 11:14:00,61.2,34.1,30.38,ENE,57,13.2,15.2,36,0.00,,---,0.00,VWS V14.01,2013-03-26 16:14:00,
2013-03-26 11:15:00,61.2,34.7,30.39,East,87,12.2,15.2,37,0.00,,---,0.00,VWS V14.01,2013-03-26 16:15:00,
2013-03-26 11:19:00,61.6,34.4,30.39,East,86,12.2,17.2,36,0.00,,---,0.00,VWS V14.01,2013-03-26 16:19:00,
2013-03-26 11:20:00,61.6,35.1,30.39,East,85,7.2,17.2,37,0.00,,---,0.00,VWS V14.01,2013-03-26 16:20:00,
2013-03-26 11:24:00,61.5,34.3,30.39,North,5,15.2,17.2,36,0.00,,---,0.00,VWS V14.01,2013-03-26 16:24:00,
2013-03-26 11:25:00,61.3,32.7,30.39,ENE,57,6.2,21.2,34,0.00,,---,0.00,VWS V14.01,2013-03-26 16:25:00,
2013-03-26 11:29:00,61.5,33.6,30.39,NNE,32,11.2,15.2,35,0.00,,---,0.00,VWS V14.01,2013-03-26 16:29:00,
2013-03-26 11:30:00,61.3,32.7,30.39,NNE,32,12.2,15.2,34,0.00,,---,0.00,VWS V14.01,2013-03-26 16:30:00,
2013-03-26 11:34:00,61.3,36.8,30.39,East,87,8.2,19.2,40,0.00,,---,0.00,VWS V14.01,2013-03-26 16:34:00,
2013-03-26 11:35:00,61.5,35.0,30.39,ENE,73,12.2,19.2,37,0.00,,---,0.00,VWS V14.01,2013-03-26 16:35:00,
2013-03-26 11:39:00,61.8,35.3,30.39,ENE,60,12.2,16.2,37,0.00,,---,0.00,VWS V14.01,2013-03-26 16:39:00,
2013-03-26 11:40:00,61.8,35.3,30.39,East,97,11.2,17.2,37,0.00,,---,0.00,VWS V14.01,2013-03-26 16:40:00,
2013-03-26 11:44:00,62.1,35.5,30.39,ENE,72,15.2,18.2,37,0.00,,---,0.00,VWS V14.01,2013-03-26 16:44:00,
2013-03-26 11:45:00,61.8,35.3,30.38,ENE,76,10.2,18.2,37,0.00,,---,0.00,VWS V14.01,2013-03-26 16:45:00,
2013-03-26 11:49:00,61.8,35.3,30.38,NNE,30,15.2,18.2,37,0.00,,---,0.00,VWS V14.01,2013-03-26 16:49:00,
2013-03-26 11:50:00,61.8,36.0,30.38,ENE,71,11.2,18.2,38,0.00,,---,0.00,VWS V14.01,2013-03-26 16:50:00,
2013-03-26 11:54:00,62.1,36.9,30.38,NE,53,10.2,17.2,39,0.00,,---,0.00,VWS V14.01,2013-03-26 16:54:00,
2013-03-26 11:55:00,62.0,36.8,30.38,ENE,58,11.2,20.2,39,0.00,,---,0.00,VWS V14.01,2013-03-26 16:55:00,
2013-03-26 11:59:00,61.8,37.2,30.38,NE,47,10.2,18.2,40,0.00,,---,0.00,VWS V14.01,2013-03-26 16:59:00,
2013-03-26 12:00:00,62.0,37.4,30.38,NE,49,15.2,18.2,40,0.00,,---,0.00,VWS V14.01,2013-03-26 17:00:00,
2013-03-26 12:04:00,61.8,36.6,30.38,East,90,11.2,19.2,39,0.00,,---,0.00,VWS V14.01,2013-03-26 17:04:00,
2013-03-26 12:05:00,61.5,36.3,30.38,East,82,7.2,19.2,39,0.00,,---,0.00,VWS V14.01,2013-03-26 17:05:00,
2013-03-26 12:09:00,61.2,37.3,30.38,East,85,10.2,20.2,41,0.00,,---,0.00,VWS V14.01,2013-03-26 17:09:00,
2013-03-26 12:10:00,61.2,39.1,30.38,NE,34,11.2,20.2,44,0.00,,---,0.00,VWS V14.01,2013-03-26 17:10:00,
2013-03-26 12:14:00,61.2,38.5,30.38,ENE,63,12.2,18.2,43,0.00,,---,0.00,VWS V14.01,2013-03-26 17:14:00,
2013-03-26 12:15:00,61.2,38.0,30.38,ESE,105,10.2,20.2,42,0.00,,---,0.00,VWS V14.01,2013-03-26 17:15:00,
2013-03-26 12:19:00,61.5,38.8,30.38,NE,42,12.2,18.2,43,0.00,,---,0.00,VWS V14.01,2013-03-26 17:19:00,
2013-03-26 12:20:00,61.5,39.4,30.38,East,84,13.2,19.2,44,0.00,,---,0.00,VWS V14.01,2013-03-26 17:20:00,
2013-03-26 12:24:00,61.5,37.6,30.38,NE,44,9.2,21.2,41,0.00,,---,0.00,VWS V14.01,2013-03-26 17:24:00,
2013-03-26 12:25:00,61.2,37.3,30.38,NE,51,11.2,21.2,41,0.00,,---,0.00,VWS V14.01,2013-03-26 17:25:00,
2013-03-26 12:29:00,61.2,38.5,30.38,NE,49,11.2,18.2,43,0.00,,---,0.00,VWS V14.01,2013-03-26 17:29:00,
2013-03-26 12:30:00,61.3,35.5,30.37,NE,48,7.2,18.2,38,0.00,,---,0.00,VWS V14.01,2013-03-26 17:30:00,
2013-03-26 12:34:00,61.6,37.1,30.37,NE,44,11.2,17.2,40,0.00,,---,0.00,VWS V14.01,2013-03-26 17:34:00,
2013-03-26 12:35:00,61.8,36.6,30.37,ENE,70,7.2,17.2,39,0.00,,---,0.00,VWS V14.01,2013-03-26 17:35:00,
2013-03-26 12:39:00,62.0,34.8,30.37,ENE,69,14.2,22.2,36,0.00,,---,0.00,VWS V14.01,2013-03-26 17:39:00,
2013-03-26 12:40:00,62.0,35.5,30.37,East,80,10.2,22.2,37,0.00,,---,0.00,VWS V14.01,2013-03-26 17:40:00,
2013-03-26 12:44:00,62.3,35.0,30.37,East,81,9.2,17.2,36,0.00,,---,0.00,VWS V14.01,2013-03-26 17:44:00,
2013-03-26 12:45:00,62.3,35.0,30.36,ENE,69,15.2,20.2,36,0.00,,---,0.00,VWS V14.01,2013-03-26 17:45:00,
2013-03-26 12:49:00,61.5,36.3,30.36,NE,34,11.2,19.2,39,0.00,,---,0.00,VWS V14.01,2013-03-26 17:49:00,
2013-03-26 12:50:00,61.8,36.6,30.36,NE,44,12.2,19.2,39,0.00,,---,0.00,VWS V14.01,2013-03-26 17:50:00,
2013-03-26 12:54:00,61.6,35.8,30.36,East,86,11.2,18.2,38,0.00,,---,0.00,VWS V14.01,2013-03-26 17:54:00,
2013-03-26 12:55:00,62.0,36.1,30.36,NE,55,11.2,18.2,38,0.00,,---,0.00,VWS V14.01,2013-03-26 17:55:00,
2013-03-26 12:59:00,61.8,33.9,30.36,ENE,57,11.2,19.2,35,0.00,,---,0.00,VWS V14.01,2013-03-26 17:59:00,
2013-03-26 13:00:00,62.3,35.7,30.36,East,86,8.2,19.2,37,0.00,,---,0.00,VWS V14.01,2013-03-26 18:00:00,
2013-03-26 13:04:00,62.7,34.0,30.36,ENE,60,16.2,17.2,34,0.00,,---,0.00,VWS V14.01,2013-03-26 18:04:00,
2013-03-26 13:05:00,62.3,36.4,30.36,East,100,17.2,17.2,38,0.00,,---,0.00,VWS V14.01,2013-03-26 18:05:00,
2013-03-26 13:09:00,62.6,35.3,30.36,ENE,65,8.2,17.2,36,0.00,,---,0.00,VWS V14.01,2013-03-26 18:09:00,
2013-03-26 13:10:00,62.6,36.7,30.36,ENE,74,10.2,17.2,38,0.00,,---,0.00,VWS V14.01,2013-03-26 18:10:00,
2013-03-26 13:14:00,62.6,36.7,30.36,ENE,70,10.2,18.2,38,0.00,,---,0.00,VWS V14.01,2013-03-26 18:14:00,
2013-03-26 13:15:00,62.4,35.8,30.36,NE,49,7.2,18.2,37,0.00,,---,0.00,VWS V14.01,2013-03-26 18:15:00,
2013-03-26 13:19:00,62.3,35.0,30.36,East,84,12.2,19.2,36,0.00,,---,0.00,VWS V14.01,2013-03-26 18:19:00,
2013-03-26 13:20:00,62.0,36.1,30.36,ENE,68,10.2,19.2,38,0.00,,---,0.00,VWS V14.01,2013-03-26 18:20:00,
2013-03-26 13:24:00,62.0,36.8,30.36,East,80,7.2,18.2,39,0.00,,---,0.00,VWS V14.01,2013-03-26 18:24:00,
2013-03-26 13:25:00,62.1,36.2,30.36,East,83,10.2,18.2,38,0.00,,---,0.00,VWS V14.01,2013-03-26 18:25:00,
2013-03-26 13:29:00,62.0,33.3,30.36,ENE,74,13.2,16.2,34,0.00,,---,0.00,VWS V14.01,2013-03-26 18:29:00,
2013-03-26 13:30:00,61.8,33.2,30.35,East,101,14.2,16.2,34,0.00,,---,0.00,VWS V14.01,2013-03-26 18:30:00,
2013-03-26 13:34:00,61.8,33.9,30.35,ENE,76,14.2,18.2,35,0.00,,---,0.00,VWS V14.01,2013-03-26 18:34:00,
2013-03-26 13:35:00,61.8,33.9,30.35,East,82,14.2,18.2,35,0.00,,---,0.00,VWS V14.01,2013-03-26 18:35:00,
2013-03-26 13:39:00,61.8,34.6,30.35,NE,35,20.2,21.2,36,0.00,,---,0.00,VWS V14.01,2013-03-26 18:39:00,
2013-03-26 13:40:00,61.5,36.3,30.35,East,86,8.2,21.2,39,0.00,,---,0.00,VWS V14.01,2013-03-26 18:40:00,
2013-03-26 13:44:00,62.0,33.3,30.35,ENE,66,7.2,16.2,34,0.00,,---,0.00,VWS V14.01,2013-03-26 18:44:00,
2013-03-26 13:45:00,62.3,35.0,30.34,ENE,61,13.2,18.2,36,0.00,,---,0.00,VWS V14.01,2013-03-26 18:45:00,
2013-03-26 13:49:00,62.4,35.1,30.34,NE,52,11.2,19.2,36,0.00,,---,0.00,VWS V14.01,2013-03-26 18:49:00,
2013-03-26 13:50:00,62.3,33.6,30.34,ENE,66,14.2,19.2,34,0.00,,---,0.00,VWS V14.01,2013-03-26 18:50:00,
2013-03-26 13:54:00,62.4,34.4,30.34,ENE,69,7.2,18.2,35,0.00,,---,0.00,VWS V14.01,2013-03-26 18:54:00,
2013-03-26 13:55:00,62.6,35.3,30.34,ENE,70,10.2,18.2,36,0.00,,---,0.00,VWS V14.01,2013-03-26 18:55:00,
2013-03-26 13:59:00,62.9,32.6,30.34,East,85,11.2,19.2,32,0.00,,---,0.00,VWS V14.01,2013-03-26 18:59:00,
2013-03-26 14:00:00,62.9,33.4,30.33,NE,47,18.2,19.2,33,0.00,,---,0.00,VWS V14.01,2013-03-26 19:00:00,
2013-03-26 14:04:00,62.3,33.6,30.33,ENE,57,10.2,20.2,34,0.00,,---,0.00,VWS V14.01,2013-03-26 19:04:00,
2013-03-26 14:05:00,62.6,33.9,30.33,ENE,71,12.2,20.2,34,0.00,,---,0.00,VWS V14.01,2013-03-26 19:05:00,
2013-03-26 14:09:00,62.3,32.1,30.33,East,84,11.2,18.2,32,0.00,,---,0.00,VWS V14.01,2013-03-26 19:09:00,
2013-03-26 14:10:00,62.4,32.2,30.33,East,81,19.2,19.2,32,0.00,,---,0.00,VWS V14.01,2013-03-26 19:10:00,
2013-03-26 14:14:00,62.4,31.4,30.33,NE,34,13.2,20.2,31,0.00,,---,0.00,VWS V14.01,2013-03-26 19:14:00,
2013-03-26 14:15:00,62.7,31.6,30.33,NE,47,14.2,20.2,31,0.00,,---,0.00,VWS V14.01,2013-03-26 19:15:00,
2013-03-26 14:19:00,62.3,31.3,30.33,East,84,6.2,19.2,31,0.00,,---,0.00,VWS V14.01,2013-03-26 19:19:00,
2013-03-26 14:20:00,61.8,30.9,30.33,ENE,74,17.2,19.2,31,0.00,,---,0.00,VWS V14.01,2013-03-26 19:20:00,
2013-03-26 14:24:00,61.8,30.9,30.33,NE,42,5.2,17.2,31,0.00,,---,0.00,VWS V14.01,2013-03-26 19:24:00,
2013-03-26 14:25:00,62.3,32.8,30.33,NE,49,14.2,18.2,33,0.00,,---,0.00,VWS V14.01,2013-03-26 19:25:00,
2013-03-26 14:29:00,62.4,32.9,30.33,NE,47,14.2,17.2,33,0.00,,---,0.00,VWS V14.01,2013-03-26 19:29:00,
2013-03-26 14:30:00,62.0,32.6,30.32,ENE,78,8.2,18.2,33,0.00,,---,0.00,VWS V14.01,2013-03-26 19:30:00,
2013-03-26 14:34:00,62.0,33.3,30.32,ENE,78,14.2,17.2,34,0.00,,---,0.00,VWS V14.01,2013-03-26 19:34:00,
2013-03-26 14:35:00,61.8,31.6,30.32,ENE,76,14.2,18.2,32,0.00,,---,0.00,VWS V14.01,2013-03-26 19:35:00,
2013-03-26 14:39:00,61.8,30.9,30.32,ENE,66,15.2,20.2,31,0.00,,---,0.00,VWS V14.01,2013-03-26 19:39:00,
2013-03-26 14:40:00,61.8,32.4,30.32,ENE,61,10.2,20.2,33,0.00,,---,0.00,VWS V14.01,2013-03-26 19:40:00,
2013-03-26 14:44:00,62.7,32.4,30.32,ENE,59,12.2,18.2,32,0.00,,---,0.00,VWS V14.01,2013-03-26 19:44:00,
2013-03-26 14:45:00,62.9,31.8,30.32,East,88,8.2,18.2,31,0.00,,---,0.00,VWS V14.01,2013-03-26 19:45:00,
2013-03-26 14:49:00,63.2,33.6,30.32,NE,53,11.2,16.2,33,0.00,,---,0.00,VWS V14.01,2013-03-26 19:49:00,
2013-03-26 14:50:00,63.4,33.0,30.32,ENE,69,13.2,16.2,32,0.00,,---,0.00,VWS V14.01,2013-03-26 19:50:00,
2013-03-26 14:54:00,62.4,33.7,30.32,ENE,65,14.2,19.2,34,0.00,,---,0.00,VWS V14.01,2013-03-26 19:54:00,
2013-03-26 14:55:00,62.1,34.2,30.32,East,81,15.2,19.2,35,0.00,,---,0.00,VWS V14.01,2013-03-26 19:55:00,
2013-03-26 14:59:00,62.3,33.6,30.32,NE,56,6.2,16.2,34,0.00,,---,0.00,VWS V14.01,2013-03-26 19:59:00,
2013-03-26 15:00:00,62.3,32.8,30.32,ENE,71,8.2,22.2,33,0.00,,---,0.00,VWS V14.01,2013-03-26 20:00:00,
2013-03-26 15:04:00,61.8,32.4,30.32,ENE,63,11.2,15.2,33,0.00,,---,0.00,VWS V14.01,2013-03-26 20:04:00,
2013-03-26 15:05:00,61.8,32.4,30.32,ENE,69,12.2,20.2,33,0.00,,---,0.00,VWS V14.01,2013-03-26 20:05:00,
2013-03-26 15:09:00,62.1,33.4,30.32,ENE,69,10.2,16.2,34,0.00,,---,0.00,VWS V14.01,2013-03-26 20:09:00,
2013-03-26 15:10:00,62.1,32.7,30.32,NE,50,11.2,16.2,33,0.00,,---,0.00,VWS V14.01,2013-03-26 20:10:00,
2013-03-26 15:14:00,62.4,34.4,30.32,ENE,77,9.2,15.2,35,0.00,,---,0.00,VWS V14.01,2013-03-26 20:14:00,
2013-03-26 15:15:00,62.7,34.0,30.32,East,88,12.2,15.2,34,0.00,,---,0.00,VWS V14.01,2013-03-26 20:15:00,
2013-03-26 15:19:00,62.7,34.0,30.32,ENE,68,4.2,16.2,34,0.00,,---,0.00,VWS V14.01,2013-03-26 20:19:00,
2013-03-26 15:20:00,63.1,34.3,30.32,ESE,109,11.2,16.2,34,0.00,,---,0.00,VWS V14.01,2013-03-26 20:20:00,
2013-03-26 15:24:00,63.4,34.6,30.32,ENE,70,12.2,12.2,34,0.00,,---,0.00,VWS V14.01,2013-03-26 20:24:00,
2013-03-26 15:25:00,62.9,35.6,30.32,ENE,78,16.2,16.2,36,0.00,,---,0.00,VWS V14.01,2013-03-26 20:25:00,
2013-03-26 15:29:00,62.6,33.9,30.32,East,87,7.2,16.2,34,0.00,,---,0.00,VWS V14.01,2013-03-26 20:29:00,
2013-03-26 15:30:00,62.4,32.9,30.31,East,86,9.2,16.2,33,0.00,,---,0.00,VWS V14.01,2013-03-26 20:30:00,
2013-03-26 15:34:00,62.4,32.9,30.31,ENE,65,7.2,13.2,33,0.00,,---,0.00,VWS V14.01,2013-03-26 20:34:00,
2013-03-26 15:35:00,62.4,33.7,30.31,ENE,75,14.2,15.2,34,0.00,,---,0.00,VWS V14.01,2013-03-26 20:35:00,
2013-03-26 15:39:00,62.3,34.3,30.31,East,92,10.2,19.2,35,0.00,,---,0.00,VWS V14.01,2013-03-26 20:39:00,
2013-03-26 15:40:00,62.6,34.6,30.31,East,90,7.2,19.2,35,0.00,,---,0.00,VWS V14.01,2013-03-26 20:40:00,
2013-03-26 15:44:00,62.1,34.2,30.31,ESE,115,12.2,17.2,35,0.00,,---,0.00,VWS V14.01,2013-03-26 20:44:00,
2013-03-26 15:45:00,62.3,34.3,30.30,ENE,59,8.2,17.2,35,0.00,,---,0.00,VWS V14.01,2013-03-26 20:45:00,
2013-03-26 15:49:00,62.0,34.8,30.30,NE,56,7.2,18.2,36,0.00,,---,0.00,VWS V14.01,2013-03-26 20:49:00,
2013-03-26 15:50:00,62.1,34.2,30.30,East,85,11.2,18.2,35,0.00,,---,0.00,VWS V14.01,2013-03-26 20:50:00,
2013-03-26 15:54:00,62.0,34.8,30.30,ENE,64,8.2,21.2,36,0.00,,---,0.00,VWS V14.01,2013-03-26 20:54:00,
2013-03-26 15:55:00,61.6,34.4,30.30,ENE,71,8.2,21.2,36,0.00,,---,0.00,VWS V14.01,2013-03-26 20:55:00,
2013-03-26 15:59:00,61.5,32.9,30.30,East,79,11.2,14.2,34,0.00,,---,0.00,VWS V14.01,2013-03-26 20:59:00,
2013-03-26 16:00:00,61.6,33.7,30.30,East,92,8.2,14.2,35,0.00,,---,0.00,VWS V14.01,2013-03-26 21:00:00,
2013-03-26 16:04:00,61.8,33.2,30.30,East,101,8.2,14.2,34,0.00,,---,0.00,VWS V14.01,2013-03-26 21:04:00,
2013-03-26 16:05:00,62.0,34.8,30.30,East,80,12.2,16.2,36,0.00,,---,0.00,VWS V14.01,2013-03-26 21:05:00,
2013-03-26 16:09:00,62.1,34.8,30.30,ENE,78,10.2,14.2,36,0.00,,---,0.00,VWS V14.01,2013-03-26 21:09:00,
2013-03-26 16:10:00,62.0,34.1,30.30,NE,53,12.2,14.2,35,0.00,,---,0.00,VWS V14.01,2013-03-26 21:10:00,
2013-03-26 16:14:00,61.8,35.3,30.30,East,92,7.2,16.2,37,0.00,,---,0.00,VWS V14.01,2013-03-26 21:14:00,
2013-03-26 16:15:00,61.8,34.6,30.29,ENE,72,7.2,16.2,36,0.00,,---,0.00,VWS V14.01,2013-03-26 21:15:00,
2013-03-26 16:19:00,61.3,36.2,30.29,ENE,70,7.2,15.2,39,0.00,,---,0.00,VWS V14.01,2013-03-26 21:19:00,
2013-03-26 16:20:00,61.5,35.7,30.29,NE,51,7.2,15.2,38,0.00,,---,0.00,VWS V14.01,2013-03-26 21:20:00,
2013-03-26 16:24:00,62.0,34.8,30.29,NE,49,6.2,12.2,36,0.00,,---,0.00,VWS V14.01,2013-03-26 21:24:00,
2013-03-26 16:25:00,62.0,34.8,30.29,East,84,13.2,14.2,36,0.00,,---,0.00,VWS V14.01,2013-03-26 21:25:00,
2013-03-26 16:29:00,61.6,35.1,30.29,East,84,7.2,15.2,37,0.00,,---,0.00,VWS V14.01,2013-03-26 21:29:00,
2013-03-26 16:30:00,61.6,35.1,30.29,ESE,105,14.2,15.2,37,0.00,,---,0.00,VWS V14.01,2013-03-26 21:30:00,
2013-03-26 16:34:00,61.8,35.3,30.29,East,101,9.2,15.2,37,0.00,,---,0.00,VWS V14.01,2013-03-26 21:34:00,
2013-03-26 16:35:00,62.0,36.1,30.29,East,84,10.2,15.2,38,0.00,,---,0.00,VWS V14.01,2013-03-26 21:35:00,
2013-03-26 16:39:00,61.8,34.6,30.29,East,101,7.2,14.2,36,0.00,,---,0.00,VWS V14.01,2013-03-26 21:39:00,
2013-03-26 16:40:00,61.8,33.9,30.29,East,79,5.2,14.2,35,0.00,,---,0.00,VWS V14.01,2013-03-26 21:40:00,
2013-03-26 16:44:00,62.0,36.1,30.29,East,81,6.2,13.2,38,0.00,,---,0.00,VWS V14.01,2013-03-26 21:44:00,
2013-03-26 16:45:00,61.8,36.0,30.29,East,80,9.2,13.2,38,0.00,,---,0.00,VWS V14.01,2013-03-26 21:45:00,
2013-03-26 16:49:00,61.8,35.3,30.29,ESE,105,8.2,13.2,37,0.00,,---,0.00,VWS V14.01,2013-03-26 21:49:00,
2013-03-26 16:50:00,62.0,34.8,30.29,East,84,8.2,15.2,36,0.00,,---,0.00,VWS V14.01,2013-03-26 21:50:00,
2013-03-26 16:54:00,61.8,36.0,30.29,ENE,67,10.2,13.2,38,0.00,,---,0.00,VWS V14.01,2013-03-26 21:54:00,
2013-03-26 16:55:00,61.8,34.6,30.29,East,79,13.2,13.2,36,0.00,,---,0.00,VWS V14.01,2013-03-26 21:55:00,
2013-03-26 16:59:00,61.8,35.3,30.29,East,90,8.2,13.2,37,0.00,,---,0.00,VWS V14.01,2013-03-26 21:59:00,
2013-03-26 17:00:00,62.3,35.7,30.29,East,93,6.2,14.2,37,0.00,,---,0.00,VWS V14.01,2013-03-26 22:00:00,
2013-03-26 17:04:00,62.3,37.0,30.29,ESE,108,10.2,13.2,39,0.00,,---,0.00,VWS V14.01,2013-03-26 22:04:00,
2013-03-26 17:05:00,62.1,36.9,30.29,ESE,105,12.2,13.2,39,0.00,,---,0.00,VWS V14.01,2013-03-26 22:05:00,
2013-03-26 17:09:00,62.0,37.4,30.29,East,98,11.2,12.2,40,0.00,,---,0.00,VWS V14.01,2013-03-26 22:09:00,
2013-03-26 17:10:00,61.5,35.0,30.29,ESE,104,7.2,16.2,37,0.00,,---,0.00,VWS V14.01,2013-03-26 22:10:00,
2013-03-26 17:14:00,61.2,34.7,30.29,ENE,69,10.2,13.2,37,0.00,,---,0.00,VWS V14.01,2013-03-26 22:14:00,
2013-03-26 17:15:00,61.2,34.7,30.28,East,82,8.2,13.2,37,0.00,,---,0.00,VWS V14.01,2013-03-26 22:15:00,
2013-03-26 17:19:00,61.5,37.0,30.28,ESE,123,11.2,14.2,40,0.00,,---,0.00,VWS V14.01,2013-03-26 22:19:00,
2013-03-26 17:20:00,61.2,36.1,30.28,East,95,7.2,14.2,39,0.00,,---,0.00,VWS V14.01,2013-03-26 22:20:00,
2013-03-26 17:24:00,61.2,36.1,30.28,ESE,105,6.2,13.2,39,0.00,,---,0.00,VWS V14.01,2013-03-26 22:24:00,
2013-03-26 17:25:00,61.5,37.0,30.28,ESE,102,9.2,13.2,40,0.00,,---,0.00,VWS V14.01,2013-03-26 22:25:00,
2013-03-26 17:29:00,61.2,35.4,30.28,ESE,107,10.2,14.2,38,0.00,,---,0.00,VWS V14.01,2013-03-26 22:29:00,
2013-03-26 17:30:00,61.0,33.9,30.27,East,101,7.2,14.2,36,0.00,,---,0.00,VWS V14.01,2013-03-26 22:30:00,
2013-03-26 17:34:00,61.2,34.1,30.27,ESE,104,10.2,13.2,36,0.00,,---,0.00,VWS V14.01,2013-03-26 22:34:00,
2013-03-26 17:35:00,61.3,36.2,30.27,ENE,73,8.2,13.2,39,0.00,,---,0.00,VWS V14.01,2013-03-26 22:35:00,
2013-03-26 17:39:00,61.6,37.1,30.27,ESE,114,3.2,11.2,40,0.00,,---,0.00,VWS V14.01,2013-03-26 22:39:00,
2013-03-26 17:40:00,61.6,36.4,30.27,SE,136,13.2,13.2,39,0.00,,---,0.00,VWS V14.01,2013-03-26 22:40:00,
2013-03-26 17:44:00,61.3,34.8,30.27,East,101,8.2,13.2,37,0.00,,---,0.00,VWS V14.01,2013-03-26 22:44:00,
2013-03-26 17:45:00,61.3,34.1,30.27,ENE,75,4.2,13.2,36,0.00,,---,0.00,VWS V14.01,2013-03-26 22:45:00,
2013-03-26 17:49:00,61.3,34.8,30.27,ESE,105,5.2,11.2,37,0.00,,---,0.00,VWS V14.01,2013-03-26 22:49:00,
2013-03-26 17:50:00,61.3,34.1,30.27,ESE,112,10.2,13.2,36,0.00,,---,0.00,VWS V14.01,2013-03-26 22:50:00,
2013-03-26 17:54:00,61.3,34.8,30.27,East,94,9.2,11.2,37,0.00,,---,0.00,VWS V14.01,2013-03-26 22:54:00,
2013-03-26 17:55:00,61.0,33.9,30.27,East,96,4.2,12.2,36,0.00,,---,0.00,VWS V14.01,2013-03-26 22:55:00,
2013-03-26 17:59:00,61.2,33.3,30.27,East,98,8.2,12.2,35,0.00,,---,0.00,VWS V14.01,2013-03-26 22:59:00,
2013-03-26 18:00:00,61.2,33.3,30.27,East,94,7.2,12.2,35,0.00,,---,0.00,VWS V14.01,2013-03-26 23:00:00,
2013-03-26 18:04:00,61.0,33.2,30.27,East,86,7.2,10.2,35,0.00,,---,0.00,VWS V14.01,2013-03-26 23:04:00,
2013-03-26 18:05:00,61.0,33.9,30.27,ESE,105,7.2,12.2,36,0.00,,---,0.00,VWS V14.01,2013-03-26 23:05:00,
2013-03-26 18:09:00,60.7,34.3,30.27,SE,126,14.2,14.2,37,0.00,,---,0.00,VWS V14.01,2013-03-26 23:09:00,
2013-03-26 18:10:00,60.7,33.6,30.27,ESE,107,5.2,14.2,36,0.00,,---,0.00,VWS V14.01,2013-03-26 23:10:00,
2013-03-26 18:14:00,60.5,32.7,30.27,ESE,117,6.2,12.2,35,0.00,,---,0.00,VWS V14.01,2013-03-26 23:14:00,
2013-03-26 18:15:00,60.7,34.3,30.27,SE,128,6.2,12.2,37,0.00,,---,0.00,VWS V14.01,2013-03-26 23:15:00,
2013-03-26 18:19:00,60.7,35.6,30.27,SE,127,6.2,11.2,39,0.00,,---,0.00,VWS V14.01,2013-03-26 23:19:00,
2013-03-26 18:20:00,60.9,37.1,30.27,SE,126,8.2,12.2,41,0.00,,---,0.00,VWS V14.01,2013-03-26 23:20:00,
2013-03-26 18:24:00,60.7,36.9,30.27,SE,134,7.2,11.2,41,0.00,,---,0.00,VWS V14.01,2013-03-26 23:24:00,
2013-03-26 18:25:00,60.5,37.3,30.27,SE,132,6.2,11.2,42,0.00,,---,0.00,VWS V14.01,2013-03-26 23:25:00,
2013-03-26 18:29:00,60.5,36.7,30.27,East,101,10.2,11.2,41,0.00,,---,0.00,VWS V14.01,2013-03-26 23:29:00,
2013-03-26 18:30:00,60.5,36.1,30.27,ESE,111,5.2,12.2,40,0.00,,---,0.00,VWS V14.01,2013-03-26 23:30:00,
2013-03-26 18:34:00,60.4,36.0,30.27,SSE,148,11.2,14.2,40,0.00,,---,0.00,VWS V14.01,2013-03-26 23:34:00,
2013-03-26 18:35:00,60.4,37.2,30.27,SE,130,5.2,14.2,42,0.00,,---,0.00,VWS V14.01,2013-03-26 23:35:00,
2013-03-26 18:39:00,60.1,35.7,30.27,ESE,111,4.2,14.2,40,0.00,,---,0.00,VWS V14.01,2013-03-26 23:39:00,
2013-03-26 18:40:00,60.1,36.3,30.27,SE,128,7.2,14.2,41,0.00,,---,0.00,VWS V14.01,2013-03-26 23:40:00,
2013-03-26 18:44:00,59.9,36.2,30.27,SE,137,7.2,12.2,41,0.00,,---,0.00,VWS V14.01,2013-03-26 23:44:00,
2013-03-26 18:45:00,59.9,36.8,30.27,SSE,154,8.2,13.2,42,0.00,,---,0.00,VWS V14.01,2013-03-26 23:45:00,
2013-03-26 18:49:00,59.8,36.7,30.27,ESE,104,8.2,13.2,42,0.00,,---,0.00,VWS V14.01,2013-03-26 23:49:00,
2013-03-26 18:50:00,59.8,36.7,30.27,SE,140,8.2,13.2,42,0.00,,---,0.00,VWS V14.01,2013-03-26 23:50:00,
2013-03-26 18:54:00,59.8,36.7,30.27,SSE,151,8.2,11.2,42,0.00,,---,0.00,VWS V14.01,2013-03-26 23:54:00,
2013-03-26 18:55:00,59.8,36.7,30.27,ESE,118,4.2,12.2,42,0.00,,---,0.00,VWS V14.01,2013-03-26 23:55:00,
2013-03-26 18:59:00,59.6,35.9,30.27,SE,145,8.2,11.2,41,0.00,,---,0.00,VWS V14.01,2013-03-26 23:59:00,
2013-03-26 19:00:00,59.6,36.5,30.27,SE,134,10.2,12.2,42,0.00,,---,0.00,VWS V14.01,2013-03-27 00:00:00,
2013-03-26 19:04:00,59.5,36.4,30.27,SE,129,5.2,13.2,42,0.00,,---,0.00,VWS V14.01,2013-03-27 00:04:00,
2013-03-26 19:05:00,59.5,36.4,30.27,SE,132,4.2,13.2,42,0.00,,---,0.00,VWS V14.01,2013-03-27 00:05:00,
2013-03-26 19:09:00,59.3,36.2,30.27,SE,142,7.2,12.2,42,0.00,,---,0.00,VWS V14.01,2013-03-27 00:09:00,
2013-03-26 19:10:00,59.3,36.2,30.27,SE,146,8.2,13.2,42,0.00,,---,0.00,VWS V14.01,2013-03-27 00:10:00,
2013-03-26 19:15:00,59.0,37.7,30.27,SE,124,5.2,12.2,45,0.00,,---,0.00,VWS V14.01,2013-03-27 00:15:00,
2013-03-26 19:20:00,59.0,37.7,30.27,ESE,121,6.2,10.2,45,0.00,,---,0.00,VWS V14.01,2013-03-27 00:20:00,
2013-03-26 19:25:00,58.7,36.9,30.27,ESE,105,3.2,12.2,44,0.00,,---,0.00,VWS V14.01,2013-03-27 00:25:00,
2013-03-26 19:30:00,58.4,35.4,30.27,ESE,115,3.2,12.2,42,0.00,,---,0.00,VWS V14.01,2013-03-27 00:30:00,
2013-03-26 19:32:00,58.4,36.0,30.27,East,101,6.2,7.2,43,0.00,,---,0.00,VWS V14.01,2013-03-27 00:32:00,
2013-03-26 19:35:00,58.3,35.9,30.27,ESE,103,6.2,12.2,43,0.00,,---,0.00,VWS V14.01,2013-03-27 00:35:00,
2013-03-26 19:37:00,58.1,35.7,30.27,ESE,120,8.2,8.2,43,0.00,,---,0.00,VWS V14.01,2013-03-27 00:37:00,
2013-03-26 19:40:00,58.0,35.7,30.27,SSE,153,6.2,14.2,43,0.00,,---,0.00,VWS V14.01,2013-03-27 00:40:00,
2013-03-26 19:42:00,58.0,35.7,30.27,SE,142,6.2,10.2,43,0.00,,---,0.00,VWS V14.01,2013-03-27 00:42:00,
2013-03-26 19:45:00,58.0,36.8,30.27,SE,143,5.2,10.2,45,0.00,,---,0.00,VWS V14.01,2013-03-27 00:45:00,
2013-03-26 19:47:00,58.0,36.8,30.27,SE,142,4.2,5.2,45,0.00,,---,0.00,VWS V14.01,2013-03-27 00:47:00,
2013-03-26 19:50:00,58.0,36.2,30.27,SSE,151,6.2,12.2,44,0.00,,---,0.00,VWS V14.01,2013-03-27 00:50:00,
2013-03-26 19:52:00,58.0,36.2,30.27,SE,142,10.2,10.2,44,0.00,,---,0.00,VWS V14.01,2013-03-27 00:52:00,
2013-03-26 19:55:00,57.8,36.0,30.27,SSE,159,7.2,10.2,44,0.00,,---,0.00,VWS V14.01,2013-03-27 00:55:00,
2013-03-26 19:57:00,57.8,36.6,30.27,SSE,150,6.2,11.2,45,0.00,,---,0.00,VWS V14.01,2013-03-27 00:57:00,
2013-03-26 20:00:00,57.8,36.6,30.27,SE,139,6.2,12.2,45,0.00,,---,0.00,VWS V14.01,2013-03-27 01:00:00,
2013-03-26 20:02:00,57.8,36.6,30.27,SE,141,6.2,8.2,45,0.00,,---,0.00,VWS V14.01,2013-03-27 01:02:00,
2013-03-26 20:05:00,57.6,37.0,30.27,SE,142,2.2,11.2,46,0.00,,---,0.00,VWS V14.01,2013-03-27 01:05:00,
2013-03-26 20:07:00,57.6,37.0,30.27,ESE,120,4.2,6.2,46,0.00,,---,0.00,VWS V14.01,2013-03-27 01:07:00,
2013-03-26 20:10:00,57.6,36.4,30.27,SE,144,4.2,8.2,45,0.00,,---,0.00,VWS V14.01,2013-03-27 01:10:00,
2013-03-26 20:12:00,57.6,36.4,30.27,SE,144,5.2,11.2,45,0.00,,---,0.00,VWS V14.01,2013-03-27 01:12:00,
2013-03-26 20:15:00,57.6,35.9,30.27,SE,136,5.2,11.2,44,0.00,,---,0.00,VWS V14.01,2013-03-27 01:15:00,
2013-03-26 20:17:00,57.6,35.9,30.27,SSE,148,8.2,8.2,44,0.00,,---,0.00,VWS V14.01,2013-03-27 01:17:00,
2013-03-26 20:20:00,57.6,35.3,30.27,SE,138,4.2,11.2,43,0.00,,---,0.00,VWS V14.01,2013-03-27 01:20:00,
2013-03-26 20:22:00,57.6,35.3,30.27,SE,124,4.2,7.2,43,0.00,,---,0.00,VWS V14.01,2013-03-27 01:22:00,
2013-03-26 20:25:00,57.6,36.4,30.27,SE,136,4.2,8.2,45,0.00,,---,0.00,VWS V14.01,2013-03-27 01:25:00,
2013-03-26 20:27:00,57.6,36.4,30.27,SE,142,8.2,11.2,45,0.00,,---,0.00,VWS V14.01,2013-03-27 01:27:00,
2013-03-26 20:30:00,57.5,36.9,30.27,SE,139,5.2,11.2,46,0.00,,---,0.00,VWS V14.01,2013-03-27 01:30:00,
2013-03-26 20:32:00,57.5,36.9,30.27,SE,139,4.2,5.2,46,0.00,,---,0.00,VWS V14.01,2013-03-27 01:32:00,
2013-03-26 20:35:00,57.5,36.3,30.27,SE,142,7.2,10.2,45,0.00,,---,0.00,VWS V14.01,2013-03-27 01:35:00,
2013-03-26 20:37:00,57.5,36.9,30.27,SE,133,8.2,8.2,46,0.00,,---,0.00,VWS V14.01,2013-03-27 01:37:00,
2013-03-26 20:40:00,57.6,36.4,30.27,SSE,165,6.2,10.2,45,0.00,,---,0.00,VWS V14.01,2013-03-27 01:40:00,
2013-03-26 20:42:00,57.6,36.4,30.27,SSE,152,4.2,8.2,45,0.00,,---,0.00,VWS V14.01,2013-03-27 01:42:00,
2013-03-26 20:45:00,57.5,36.9,30.27,SSE,153,3.2,11.2,46,0.00,,---,0.00,VWS V14.01,2013-03-27 01:45:00,
2013-03-26 20:47:00,57.5,36.9,30.27,SSE,147,6.2,11.2,46,0.00,,---,0.00,VWS V14.01,2013-03-27 01:47:00,
2013-03-26 20:50:00,57.5,37.5,30.27,SSE,167,10.2,11.2,47,0.00,,---,0.00,VWS V14.01,2013-03-27 01:50:00,
2013-03-26 20:52:00,57.5,38.0,30.27,SE,136,6.2,10.2,48,0.00,,---,0.00,VWS V14.01,2013-03-27 01:52:00,
2013-03-26 20:55:00,57.3,36.7,30.27,SE,140,3.2,10.2,46,0.00,,---,0.00,VWS V14.01,2013-03-27 01:55:00,
2013-03-26 20:57:00,57.3,36.7,30.27,SE,130,8.2,8.2,46,0.00,,---,0.00,VWS V14.01,2013-03-27 01:57:00,
2013-03-26 21:00:00,57.5,37.5,30.28,SSE,148,4.2,11.2,47,0.00,,---,0.00,VWS V14.01,2013-03-27 02:00:00,
2013-03-26 21:02:00,57.5,37.5,30.28,SSE,148,7.2,7.2,47,0.00,,---,0.00,VWS V14.01,2013-03-27 02:02:00,
2013-03-26 21:05:00,57.3,38.3,30.28,SSE,148,5.2,8.2,49,0.00,,---,0.00,VWS V14.01,2013-03-27 02:05:00,
2013-03-26 21:07:00,57.3,38.3,30.28,SE,137,6.2,8.2,49,0.00,,---,0.00,VWS V14.01,2013-03-27 02:07:00,
2013-03-26 21:10:00,57.3,38.3,30.28,SE,125,5.2,10.2,49,0.00,,---,0.00,VWS V14.01,2013-03-27 02:10:00,
2013-03-26 21:12:00,57.3,38.3,30.28,SE,142,8.2,8.2,49,0.00,,---,0.00,VWS V14.01,2013-03-27 02:12:00,
2013-03-26 21:15:00,57.3,38.3,30.28,SSE,149,4.2,8.2,49,0.00,,---,0.00,VWS V14.01,2013-03-27 02:15:00,
2013-03-26 21:17:00,57.3,38.3,30.28,SSE,149,5.2,6.2,49,0.00,,---,0.00,VWS V14.01,2013-03-27 02:17:00,
2013-03-26 21:20:00,57.3,38.3,30.28,SE,144,5.2,8.2,49,0.00,,---,0.00,VWS V14.01,2013-03-27 02:20:00,
2013-03-26 21:22:00,57.3,38.3,30.28,SE,144,7.2,7.2,49,0.00,,---,0.00,VWS V14.01,2013-03-27 02:22:00,
2013-03-26 21:25:00,57.3,38.3,30.28,SSE,151,5.2,9.2,49,0.00,,---,0.00,VWS V14.01,2013-03-27 02:25:00,
2013-03-26 21:27:00,57.3,37.8,30.28,SE,142,6.2,7.2,48,0.00,,---,0.00,VWS V14.01,2013-03-27 02:27:00,
2013-03-26 21:30:00,57.3,37.8,30.28,SSE,161,4.2,7.2,48,0.00,,---,0.00,VWS V14.01,2013-03-27 02:30:00,
2013-03-26 21:32:00,57.3,37.8,30.28,SSE,155,6.2,6.2,48,0.00,,---,0.00,VWS V14.01,2013-03-27 02:32:00,
2013-03-26 21:35:00,57.3,37.8,30.28,SE,146,4.2,11.2,48,0.00,,---,0.00,VWS V14.01,2013-03-27 02:35:00,
2013-03-26 21:37:00,57.3,38.3,30.28,SE,143,7.2,7.2,49,0.00,,---,0.00,VWS V14.01,2013-03-27 02:37:00,
2013-03-26 21:40:00,57.5,39.0,30.28,SSE,149,9.2,10.2,50,0.00,,---,0.00,VWS V14.01,2013-03-27 02:40:00,
2013-03-26 21:42:00,57.5,38.5,30.28,SE,142,5.2,9.2,49,0.00,,---,0.00,VWS V14.01,2013-03-27 02:42:00,
2013-03-26 21:45:00,57.5,38.5,30.29,SSE,157,6.2,11.2,49,0.00,,---,0.00,VWS V14.01,2013-03-27 02:45:00,
2013-03-26 21:47:00,57.5,38.5,30.29,SSE,157,3.2,6.2,49,0.00,,---,0.00,VWS V14.01,2013-03-27 02:47:00,
2013-03-26 21:50:00,57.5,39.0,30.29,SE,138,4.2,8.2,50,0.00,,---,0.00,VWS V14.01,2013-03-27 02:50:00,
2013-03-26 21:52:00,57.3,38.8,30.29,SE,136,4.2,8.2,50,0.00,,---,0.00,VWS V14.01,2013-03-27 02:52:00,
2013-03-26 21:55:00,57.3,38.8,30.29,SSE,159,3.2,10.2,50,0.00,,---,0.00,VWS V14.01,2013-03-27 02:55:00,
2013-03-26 21:57:00,57.5,39.0,30.29,SE,140,7.2,10.2,50,0.00,,---,0.00,VWS V14.01,2013-03-27 02:57:00,
2013-03-26 22:00:00,57.3,38.8,30.29,SE,125,12.2,12.2,50,0.00,,---,0.00,VWS V14.01,2013-03-27 03:00:00,
2013-03-26 22:02:00,57.3,38.8,30.29,SE,143,5.2,12.2,50,0.00,,---,0.00,VWS V14.01,2013-03-27 03:02:00,
2013-03-26 22:05:00,57.3,39.3,30.29,SE,140,4.2,12.2,51,0.00,,---,0.00,VWS V14.01,2013-03-27 03:05:00,
2013-03-26 22:07:00,57.3,39.8,30.29,SE,142,6.2,7.2,52,0.00,,---,0.00,VWS V14.01,2013-03-27 03:07:00,
2013-03-26 22:10:00,57.3,39.8,30.29,SSE,155,5.2,11.2,52,0.00,,---,0.00,VWS V14.01,2013-03-27 03:10:00,
2013-03-26 22:12:00,57.5,40.0,30.29,SE,146,9.2,10.2,52,0.00,,---,0.00,VWS V14.01,2013-03-27 03:12:00,
2013-03-26 22:15:00,57.5,40.0,30.29,SSE,153,5.2,11.2,52,0.00,,---,0.00,VWS V14.01,2013-03-27 03:15:00,
2013-03-26 22:17:00,57.5,40.0,30.29,SSE,162,4.2,8.2,52,0.00,,---,0.00,VWS V14.01,2013-03-27 03:17:00,
2013-03-26 22:20:00,57.5,40.0,30.29,SE,141,1.2,8.2,52,0.00,,---,0.00,VWS V14.01,2013-03-27 03:20:00,
2013-03-26 22:22:00,57.5,40.0,30.29,SSE,148,4.2,7.2,52,0.00,,---,0.00,VWS V14.01,2013-03-27 03:22:00,
2013-03-26 22:25:00,57.3,40.3,30.29,SSE,148,4.2,7.2,53,0.00,,---,0.00,VWS V14.01,2013-03-27 03:25:00,
2013-03-26 22:27:00,57.3,40.3,30.29,SSE,148,4.2,5.2,53,0.00,,---,0.00,VWS V14.01,2013-03-27 03:27:00,
2013-03-26 22:30:00,57.2,40.2,30.29,SE,146,6.2,8.2,53,0.00,,---,0.00,VWS V14.01,2013-03-27 03:30:00,
2013-03-26 22:32:00,57.2,40.2,30.29,SE,144,5.2,8.2,53,0.00,,---,0.00,VWS V14.01,2013-03-27 03:32:00,
2013-03-26 22:35:00,57.2,40.7,30.29,SSE,161,8.2,8.2,54,0.00,,---,0.00,VWS V14.01,2013-03-27 03:35:00,
2013-03-26 22:37:00,57.2,40.2,30.29,SSE,159,5.2,9.2,53,0.00,,---,0.00,VWS V14.01,2013-03-27 03:37:00,
2013-03-26 22:40:00,57.3,40.3,30.29,SSE,157,3.2,9.2,53,0.00,,---,0.00,VWS V14.01,2013-03-27 03:40:00,
2013-03-26 22:42:00,57.2,40.7,30.29,SSE,161,10.2,11.2,54,0.00,,---,0.00,VWS V14.01,2013-03-27 03:42:00,
2013-03-26 22:45:00,57.3,40.3,30.29,SSE,147,3.2,11.2,53,0.00,,---,0.00,VWS V14.01,2013-03-27 03:45:00,
2013-03-26 22:47:00,57.2,40.2,30.29,South,178,6.2,7.2,53,0.00,,---,0.00,VWS V14.01,2013-03-27 03:47:00,
2013-03-26 22:50:00,57.2,40.2,30.29,SE,143,4.2,7.2,53,0.00,,---,0.00,VWS V14.01,2013-03-27 03:50:00,
2013-03-26 22:52:00,57.2,40.2,30.29,SSE,147,6.2,7.2,53,0.00,,---,0.00,VWS V14.01,2013-03-27 03:52:00,
2013-03-26 22:55:00,57.3,39.8,30.29,SE,143,4.2,10.2,52,0.00,,---,0.00,VWS V14.01,2013-03-27 03:55:00,
2013-03-26 22:57:00,57.3,39.8,30.29,SSE,157,9.2,9.2,52,0.00,,---,0.00,VWS V14.01,2013-03-27 03:57:00,
2013-03-26 23:00:00,57.5,40.0,30.29,SSE,154,5.2,10.2,52,0.00,,---,0.00,VWS V14.01,2013-03-27 04:00:00,
2013-03-26 23:05:00,57.5,41.0,30.29,SSE,149,6.2,7.2,54,0.00,,---,0.00,VWS V14.01,2013-03-27 04:05:00,
2013-03-26 23:10:00,57.3,41.3,30.29,SSE,162,7.2,8.2,55,0.00,,---,0.00,VWS V14.01,2013-03-27 04:10:00,
2013-03-26 23:15:00,57.3,41.8,30.29,SSE,147,6.2,9.2,56,0.00,,---,0.00,VWS V14.01,2013-03-27 04:15:00,
2013-03-26 23:20:00,57.3,41.8,30.29,SSE,148,4.2,8.2,56,0.00,,---,0.00,VWS V14.01,2013-03-27 04:20:00,
2013-03-26 23:25:00,57.3,41.3,30.29,SE,138,4.2,8.2,55,0.00,,---,0.00,VWS V14.01,2013-03-27 04:25:00,
2013-03-26 23:30:00,57.3,41.8,30.29,SSE,154,2.2,6.2,56,0.00,,---,0.00,VWS V14.01,2013-03-27 04:30:00,
2013-03-26 23:35:00,57.2,42.1,30.29,SE,142,6.2,9.2,57,0.00,,---,0.00,VWS V14.01,2013-03-27 04:35:00,
2013-03-26 23:40:00,57.3,41.8,30.29,SSE,165,10.2,11.2,56,0.00,,---,0.00,VWS V14.01,2013-03-27 04:40:00,
2013-03-26 23:45:00,57.5,42.4,30.29,SE,140,5.2,13.2,57,0.00,,---,0.00,VWS V14.01,2013-03-27 04:45:00,
2013-03-26 23:50:00,57.3,41.8,30.29,SE,128,6.2,10.2,56,0.00,,---,0.00,VWS V14.01,2013-03-27 04:50:00,
2013-03-26 23:55:00,57.5,41.0,30.29,ESE,102,3.2,12.2,54,0.00,,---,0.00,VWS V14.01,2013-03-27 04:55:00,